Wind_Speed
16 17 17 16 16 17 19 19 19 19 19 20 19 18 18 18 19 19 19 19 19 17 17 18 18 17 17 17 17 17 17 17 17 18 18 18 18 19 20 20 20 21 21
17 17 16 16 17 17 19 20 19 20 20 20 19 19 18 18 18 18 19 18 18 18 17 16 16 16 17 17 17 17 17 17 17 17 17 18 19 20 20 21 21 21 21
18 17 18 18 18 19 20 20 19 19 20 19 19 18 18 18 18 18 18 17 18 17 16 15 15 15 15 16 16 17 17 17 17 18 18 18 18 19 20 21 21 21 22
18 18 18 18 20 20 21 21 20 20 20 19 19 18 18 17 17 16 16 16 15 15 15 15 14 14 15 15 16 16 16 16 17 18 19 19 19 19 19 20 21 21 21
18 19 19 20 20 21 20 20 20 20 19 18 18 18 17 17 17 16 15 14 14 15 15 14 14 14 14 15 16 16 17 17 18 18 18 19 19 19 19 19 20 20 20
19 19 20 20 20 20 19 19 20 19 18 18 17 17 16 16 16 16 14 14 14 14 14 14 14 15 15 15 16 16 17 18 18 18 18 18 18 18 18 19 19 20 20
19 18 20 20 19 19 19 19 20 19 17 17 16 16 15 16 16 15 14 14 13 13 14 14 15 16 16 16 16 16 17 17 17 18 18 18 17 18 18 18 19 19 19
17 16 18 20 20 19 18 19 19 17 17 16 15 15 15 14 14 14 14 13 13 13 14 14 15 16 15 15 14 15 16 16 16 16 17 17 17 18 18 18 19 19 19
15 15 17 18 18 19 19 18 16 15 15 14 13 13 14 13 13 13 13 13 13 13 13 14 15 15 15 15 15 15 16 16 16 16 17 17 17 18 18 18 19 19 19
16 16 17 17 18 18 18 17 16 14 13 13 13 13 13 13 13 14 14 14 13 13 13 13 14 14 14 14 15 15 15 15 15 16 16 16 17 17 18 18 19 19 20
17 17 16 16 17 17 17 16 14 13 12 12 12 12 13 13 13 13 13 13 13 13 13 13 14 14 14 14 14 15 14 15 15 16 17 17 17 17 18 18 19 20 20
16 17 17 17 17 16 16 15 13 12 12 12 12 13 13 14 14 14 13 13 13 13 14 14 15 15 15 14 13 13 13 15 16 16 16 17 17 18 19 18 19 19 20
17 18 18 17 17 17 16 15 14 13 13 13 13 13 14 14 15 15 14 14 14 14 14 15 15 14 14 14 13 13 13 14 15 15 16 16 17 17 18 18 18 19 19
18 18 17 17 16 16 15 13 14 14 13 13 14 14 15 15 15 15 15 14 14 14 15 15 14 13 14 14 14 14 14 14 14 15 16 17 17 17 18 18 19 19 20
17 18 17 17 16 15 14 14 14 14 14 14 14 14 15 15 15 15 15 15 14 14 14 13 13 13 14 15 15 16 16 15 15 15 16 16 17 17 17 18 19 19 20
17 18 17 17 16 15 14 14 14 15 15 15 15 15 15 15 15 15 15 15 15 14 14 14 14 14 14 15 15 16 16 16 16 16 16 16 16 16 17 17 18 19 20
17 17 17 17 17 16 15 15 15 15 16 16 15 14 14 15 15 15 14 14 14 14 13 13 14 15 15 15 15 15 16 16 17 17 16 16 16 17 18 18 19 19 20
17 18 18 18 17 17 17 17 17 17 16 16 15 15 15 14 14 14 14 14 14 14 14 14 15 15 16 16 16 16 16 16 16 16 16 16 17 18 18 19 19 20 20
18 19 20 18 18 18 18 17 17 17 17 16 16 16 16 15 15 15 15 14 14 14 14 15 15 16 16 16 16 16 16 16 16 17 16 17 17 18 18 18 19 20 21
19 19 19 18 19 18 18 18 18 18 17 17 17 16 16 16 15 15 15 15 15 15 15 16 16 17 17 17 18 17 17 17 17 17 17 17 18 18 18 19 19 20 21
19 19 19 19 18 18 19 19 19 18 18 17 17 16 16 16 16 16 16 16 16 16 16 17 18 18 18 18 18 19 19 19 18 18 18 18 18 18 19 19 20 21 21
20 21 20 19 19 19 20 20 19 19 18 18 17 17 17 16 16 17 17 17 17 17 17 18 19 18 18 18 18 19 19 18 18 18 18 19 19 19 19 20 20 21 21
21 21 20 20 20 20 20 20 19 19 20 19 18 17 17 17 18 18 18 19 19 19 19 20 19 19 18 18 18 18 18 17 17 17 18 18 19 20 20 20 21 22 21
22 22 22 21 20 20 21 21 20 20 20 19 18 18 18 18 18 18 19 20 20 19 19 19 19 18 18 18 17 16 16 15 15 16 18 18 18 19 20 21 21 21 20
23 23 23 23 22 22 22 21 20 19 19 19 18 19 19 19 18 19 19 20 20 20 19 19 18 18 16 16 15 15 15 15 15 16 17 18 18 19 20 20 20 20 20
23 23 23 23 23 23 23 23 21 20 20 19 19 20 20 20 20 20 20 20 20 19 19 19 18 17 17 16 15 15 16 16 16 16 17 17 17 18 19 18 18 19 19
Wind_Direction
311 308 303 305 307 308 310 308 303 303 303 304 302 298 295 292 291 289 289 285 282 283 284 281 280 275 272 270 266 264 262 260 260 259 259 260 262 262 262 262 261 261 261
307 308 306 309 308 308 309 308 305 303 303 302 301 299 297 294 293 292 291 286 282 281 282 280 278 274 271 269 267 267 264 261 262 262 261 262 263 262 263 263 263 264 264
310 311 307 307 308 308 309 310 308 305 302 300 299 298 296 292 292 291 289 285 284 284 281 280 279 273 271 269 267 266 267 265 265 264 265 265 264 264 263 264 264 265 266
312 313 308 307 308 308 308 309 309 307 302 296 295 295 296 293 291 289 288 288 286 284 283 281 282 276 272 271 267 264 266 268 268 268 267 266 267 265 265 265 265 265 266
308 312 312 310 309 307 309 310 307 305 300 296 294 293 294 292 290 287 286 287 287 286 284 283 281 277 276 273 269 268 268 268 270 271 271 269 270 267 267 268 268 268 269
307 309 311 310 309 308 309 309 308 303 298 297 295 292 291 291 290 288 286 287 288 287 284 284 282 280 279 277 274 272 270 269 271 272 274 274 272 270 270 270 271 271 271
306 308 310 310 311 308 309 307 307 304 300 298 294 294 293 292 293 290 287 289 291 289 288 288 288 288 286 282 280 275 272 270 270 272 274 275 273 273 273 271 271 272 272
305 307 310 311 314 316 315 312 308 304 302 302 297 296 300 299 296 293 291 291 293 291 288 289 292 292 290 287 285 280 275 272 273 275 275 276 276 275 273 273 274 273 273
305 311 314 314 315 316 316 315 311 308 304 301 302 303 303 304 302 298 297 293 291 292 290 290 293 294 291 286 285 284 279 276 275 276 275 276 278 276 275 275 274 274 273
312 314 317 315 316 318 317 314 314 308 302 303 304 305 304 300 300 302 300 295 294 295 293 292 295 295 292 291 290 287 281 277 277 278 277 278 279 279 277 277 277 276 276
317 318 318 317 318 317 317 317 313 307 302 304 306 303 303 303 301 303 300 299 297 295 295 298 300 298 296 295 294 289 282 280 279 280 278 278 280 280 281 280 280 279 280
318 318 318 317 316 317 315 315 310 306 304 304 307 305 305 305 301 301 301 300 297 295 294 297 298 298 298 297 295 291 288 285 282 280 278 278 281 283 283 283 283 283 282
313 315 317 316 316 316 313 312 311 306 308 306 307 307 306 304 301 299 297 297 297 296 296 299 299 300 299 297 296 297 294 291 285 282 281 281 281 285 285 285 285 284 282
309 313 313 314 315 315 313 313 312 311 309 309 308 307 305 302 299 299 298 297 297 295 296 299 301 303 302 300 299 300 299 296 291 287 284 283 283 284 286 287 287 286 285
308 309 310 313 313 313 311 312 313 312 311 307 307 306 305 303 301 299 298 296 296 297 298 300 300 301 301 300 299 299 298 296 293 292 289 287 286 285 286 287 287 286 286
306 307 309 311 310 310 307 308 309 309 309 309 306 304 303 303 303 298 296 294 293 294 294 294 294 298 300 300 298 296 296 295 293 292 290 288 287 286 287 288 289 287 287
305 306 307 308 308 307 305 304 305 305 307 309 307 303 303 302 300 298 298 294 292 292 292 294 296 298 298 298 298 295 294 295 296 296 292 290 289 289 289 289 291 292 289
303 304 306 305 303 304 305 304 303 303 304 304 304 304 304 305 302 301 301 296 291 292 293 295 295 297 297 297 297 295 293 295 297 296 295 294 293 292 291 291 293 294 294
299 301 304 303 301 303 304 304 303 302 303 302 301 301 301 303 302 302 300 297 293 292 293 294 294 296 296 297 296 295 294 294 296 297 295 295 295 294 294 295 296 295 295
296 298 302 302 302 301 302 303 302 301 300 300 301 298 297 300 299 299 299 297 294 294 294 294 294 294 295 295 296 295 294 293 295 296 298 300 301 301 299 299 298 297 296
298 297 299 298 297 300 301 301 301 301 299 298 299 296 296 297 298 297 297 295 292 292 293 294 295 294 293 294 294 293 292 291 292 295 297 299 302 303 303 303 302 301 300
296 295 295 295 294 297 299 298 298 298 298 295 294 294 296 297 297 296 295 294 292 291 293 294 295 295 294 296 295 294 293 291 291 292 295 297 300 301 302 303 304 304 304
294 294 292 294 293 294 296 298 296 295 294 292 291 292 294 296 296 296 295 295 294 293 292 293 294 295 294 297 297 296 294 291 291 292 294 297 300 301 301 302 302 301 302
290 291 291 292 291 291 293 295 296 293 291 289 289 291 294 295 295 295 295 295 295 293 294 293 292 294 295 294 294 294 293 292 292 293 295 297 300 301 303 304 304 302 301
287 289 289 288 289 289 290 292 293 292 291 289 290 292 293 292 293 294 295 296 295 294 294 293 293 294 295 298 298 295 294 295 296 297 301 301 303 305 307 309 309 308 306
285 286 287 285 285 287 288 291 290 288 287 288 290 292 293 291 292 293 295 296 295 295 296 294 293 293 291 292 292 294 295 296 298 298 301 304 306 307 309 309 310 310 309
Height
5849 5847 5845 5842 5842 5840 5838 5835 5833 5830 5828 5826 5824 5822 5819 5817 5816 5813 5812 5810 5808 5806 5805 5803 5802 5801 5801 5801 5801 5801 5802 5802 5803 5803 5803 5804 5804 5804 5804 5804 5805 5805 5805
5845 5844 5841 5839 5838 5836 5833 5830 5828 5825 5823 5821 5819 5817 5815 5813 5811 5808 5807 5805 5803 5802 5800 5799 5797 5797 5796 5796 5796 5797 5797 5797 5798 5798 5798 5799 5799 5799 5799 5799 5799 5799 5799
5841 5839 5837 5835 5833 5830 5828 5825 5823 5820 5818 5816 5814 5812 5810 5808 5806 5804 5802 5801 5799 5797 5795 5794 5793 5793 5792 5792 5792 5792 5792 5792 5793 5793 5793 5793 5794 5793 5794 5793 5793 5793 5793
5836 5834 5832 5829 5828 5826 5823 5820 5818 5815 5812 5810 5809 5807 5805 5803 5801 5799 5798 5796 5794 5793 5791 5790 5789 5789 5788 5788 5788 5788 5788 5788 5788 5788 5788 5788 5788 5788 5788 5788 5788 5787 5787
5833 5830 5827 5825 5823 5821 5818 5815 5812 5810 5808 5806 5804 5802 5800 5798 5796 5795 5794 5792 5791 5789 5788 5787 5786 5785 5784 5783 5783 5783 5783 5783 5783 5783 5782 5782 5782 5782 5782 5782 5782 5781 5780
5828 5826 5823 5820 5818 5815 5813 5810 5807 5804 5803 5801 5799 5797 5795 5794 5792 5790 5789 5788 5787 5785 5784 5783 5782 5781 5780 5779 5779 5778 5778 5778 5778 5777 5777 5776 5776 5776 5776 5776 5775 5775 5774
5824 5822 5819 5816 5813 5811 5808 5806 5803 5800 5798 5796 5794 5793 5791 5789 5788 5786 5785 5784 5783 5782 5780 5779 5778 5777 5776 5775 5774 5773 5773 5772 5772 5772 5771 5771 5771 5770 5770 5770 5769 5769 5768
5820 5818 5815 5812 5809 5807 5804 5801 5798 5796 5794 5792 5790 5789 5788 5786 5784 5783 5781 5780 5779 5778 5777 5776 5774 5773 5771 5770 5769 5769 5768 5767 5767 5767 5766 5766 5765 5765 5764 5764 5763 5763 5763
5816 5814 5811 5808 5806 5804 5801 5798 5795 5793 5791 5789 5787 5786 5784 5783 5781 5779 5778 5777 5775 5774 5773 5771 5770 5769 5767 5766 5765 5763 5763 5762 5762 5761 5761 5760 5760 5759 5759 5758 5757 5757 5756
5812 5810 5807 5804 5802 5800 5797 5794 5792 5789 5787 5786 5784 5783 5781 5779 5777 5776 5774 5773 5772 5770 5769 5767 5766 5765 5763 5762 5760 5759 5758 5757 5757 5756 5756 5755 5754 5754 5753 5752 5751 5750 5750
5809 5807 5804 5801 5799 5796 5793 5791 5789 5787 5785 5783 5781 5779 5778 5776 5774 5772 5770 5769 5768 5766 5765 5763 5762 5761 5759 5757 5756 5754 5753 5752 5752 5751 5751 5750 5749 5748 5747 5746 5745 5744 5743
5806 5804 5801 5798 5796 5793 5790 5788 5786 5784 5782 5780 5778 5776 5774 5772 5770 5769 5767 5765 5764 5762 5761 5759 5758 5756 5755 5753 5751 5750 5749 5748 5747 5746 5745 5745 5744 5743 5742 5741 5740 5738 5737
5803 5800 5798 5795 5792 5789 5786 5784 5782 5780 5778 5776 5775 5773 5771 5769 5767 5765 5763 5761 5760 5758 5757 5755 5754 5752 5751 5749 5747 5746 5745 5743 5742 5741 5740 5740 5739 5738 5736 5735 5734 5732 5731
5799 5796 5794 5791 5789 5785 5783 5781 5779 5777 5775 5773 5771 5770 5767 5765 5763 5761 5759 5757 5756 5754 5753 5752 5750 5748 5747 5745 5743 5742 5740 5739 5737 5736 5735 5734 5733 5732 5731 5729 5728 5726 5724
5794 5792 5789 5787 5785 5782 5779 5777 5775 5773 5771 5770 5768 5766 5764 5761 5759 5757 5755 5753 5752 5750 5749 5747 5746 5744 5743 5741 5739 5738 5736 5734 5733 5732 5730 5729 5727 5726 5725 5723 5721 5720 5718
5790 5788 5785 5783 5781 5778 5776 5774 5772 5770 5768 5766 5764 5761 5759 5757 5755 5753 5751 5749 5748 5746 5745 5744 5742 5741 5739 5737 5735 5733 5732 5730 5729 5727 5725 5724 5722 5720 5719 5717 5716 5714 5712
5784 5783 5781 5778 5776 5774 5772 5770 5768 5766 5764 5761 5759 5757 5755 5753 5751 5749 5746 5744 5743 5742 5741 5740 5738 5737 5735 5733 5731 5729 5727 5726 5724 5722 5720 5719 5717 5715 5714 5712 5710 5707 5705
5779 5778 5776 5774 5772 5770 5768 5766 5764 5762 5760 5757 5755 5753 5751 5749 5747 5745 5743 5741 5740 5739 5737 5736 5734 5733 5731 5729 5727 5725 5723 5721 5719 5717 5715 5713 5712 5710 5708 5706 5703 5701 5699
5775 5773 5771 5769 5767 5765 5763 5761 5759 5757 5755 5753 5751 5749 5747 5746 5743 5741 5740 5738 5736 5735 5734 5732 5731 5729 5727 5724 5722 5720 5719 5717 5715 5712 5710 5708 5706 5704 5702 5700 5697 5695 5692
5770 5769 5767 5765 5763 5761 5759 5757 5755 5753 5751 5749 5747 5745 5743 5742 5740 5738 5736 5734 5733 5731 5730 5728 5726 5724 5722 5720 5718 5716 5714 5712 5710 5707 5705 5703 5701 5698 5696 5694 5691 5689 5686
5765 5763 5762 5760 5758 5756 5754 5752 5750 5748 5746 5744 5742 5740 5739 5737 5736 5734 5732 5730 5728 5727 5725 5724 5721 5719 5717 5714 5712 5710 5708 5706 5704 5702 5700 5698 5695 5693 5690 5688 5685 5682 5680
5760 5758 5756 5754 5752 5751 5749 5746 5744 5742 5740 5739 5737 5735 5734 5732 5731 5729 5728 5726 5724 5722 5721 5718 5716 5714 5711 5709 5707 5705 5703 5700 5699 5697 5695 5692 5690 5687 5685 5682 5679 5676 5673
5754 5752 5750 5749 5747 5745 5743 5741 5739 5737 5735 5733 5732 5730 5729 5727 5726 5724 5723 5721 5719 5717 5715 5713 5711 5709 5706 5704 5701 5699 5697 5695 5693 5692 5690 5687 5685 5682 5679 5676 5673 5670 5667
5747 5745 5744 5742 5741 5739 5737 5735 5733 5731 5729 5727 5726 5725 5724 5722 5720 5719 5717 5716 5714 5712 5710 5707 5705 5703 5701 5698 5696 5694 5692 5690 5689 5687 5685 5682 5680 5677 5674 5671 5667 5664 5661
5740 5738 5737 5735 5734 5732 5731 5729 5727 5726 5724 5722 5721 5720 5718 5716 5715 5714 5712 5710 5708 5706 5704 5702 5699 5697 5695 5693 5691 5689 5688 5686 5684 5682 5680 5677 5675 5672 5669 5665 5662 5658 5655
5733 5731 5729 5728 5727 5725 5724 5722 5721 5719 5718 5717 5716 5714 5712 5711 5709 5708 5706 5704 5702 5700 5698 5696 5694 5692 5690 5688 5687 5685 5683 5681 5679 5677 5675 5673 5670 5667 5664 5660 5657 5653 5650